Terug naar catalogus

BREEZE-M DEB

TANK

ActiefHEO
NORAD 28188·DEBRIS·🇷🇺 Russia

Gelanceerd Mar 15, 2004 vanaf Baikonur Cosmodrome

Loading…

Volgende Passages (komende 24 uur)

TLE

VersSource: Space-Track

Epoch: Sep 13, 2026, 09:00 UTC

1 28188U 04008B   26256.37554544  .00002694  00000-0  42204-3 0  9993
2 28188  49.5259 359.1778 4915642 269.3640  36.5520  5.76698614439733

Volg BREEZE-M DEB in realtime met AllMySat

Download on the App Store